< < Back
Terminal Aerodrome Forecast


Current Version              Previous Versions:   1  2  3  4  5  6  7  8  9  

Terminal Aerodrome Forecast

488
FTUS44 KBMX 241100
TAFMGM
TAF
KMGM 241120Z 2412/2512 VRB03KT P6SM SCT250
     FM241800 34007KT P6SM SKC
     FM250100 32003KT P6SM SKC=



Latest METAR

386
SAUS80 KWBC 251600 CCA
MTRMGM
METAR KMGM 251553Z 36004KT 10SM CLR 22/09 A3011 RMK AO2 SLP195
T02170094


USA.gov is the U.S. government's official web portal to all federal, state and local government web resources and services.